User: anonymous   Login
Location: Albany
(35.0000°S, 118.0000°E)
Time: 11:27:05
(UTC-05:00)
Language:

TRMM - Orbit

View from above orbital plane
View from above orbital plane
View from above satellite
View from above satellite

Ground track
Ground track

The orbit data is extracted from the following two-line orbital elements,

1 25063U 97074A   15024.69088396  .00037745  00000-0  30080-3 0  8656
2 25063 034.9528 104.3278 0002698 152.0261 342.2660 15.70069705979329
Epoch (UTC): 24 January 2015 16:34:52
Eccentricity: 0.0002698
inclination: 34.9528°
perigee height: 357 km
apogee height: 360 km
right ascension of ascending node: 104.3278°
argument of perigee: 152.0261°
revolutions per day: 15.70069705
mean anomaly at epoch: 342.2660°
orbit number at epoch: 97932

The dashed part of the orbit path shows where the satellite is in the earth's shadow,  

DLR